CW6338 Weather Reports


Display with metric or nautical units.
time (UTC)temp
F
wind
direction
speed
MPH
gust
MPH
rain 1hr
in
rain 24hr
in
rain mn
in
humidity
%
barometer
mb
20260901212716 97 203 4.0 6.0 0.00 0.00 0.00 50 1015.4
20260901211716 97 158 4.0 6.0 0.00 0.00 0.00 49 1015.4
20260901210716 97 180 4.0 6.0 0.00 0.00 0.00 49 1015.5
20260901205736 98 180 3.0 6.0 0.00 0.00 0.00 49 1015.6
20260901204716 97 203 3.0 5.0 0.00 0.00 0.00 50 1015.6
20260901203717 97 158 3.0 7.0 0.00 0.00 0.00 50 1015.6
20260901202716 97 180 3.0 5.0 0.00 0.00 0.00 49 1015.7
20260901201736 97 158 4.0 6.0 0.00 0.00 0.00 51 1015.8
20260901200716 97 158 6.0 9.0 0.00 0.00 0.00 53 1015.8
20260901195716 96 225 4.0 6.0 0.00 0.00 0.00 49 1016.0
20260901194716 96 180 5.0 9.0 0.00 0.00 0.00 49 1016.0
20260901193716 96 158 6.0 11.0 0.00 0.00 0.00 48 1016.1
20260901192736 96 180 5.0 6.0 0.00 0.00 0.00 50 1016.1
20260901191716 96 203 4.0 6.0 0.00 0.00 0.00 50 1016.2
20260901190716 96 180 3.0 5.0 0.00 0.00 0.00 52 1016.3
20260901185716 96 180 3.0 4.0 0.00 0.00 0.00 50 1016.3
20260901184736 95 225 6.0 11.0 0.00 0.00 0.00 54 1016.5
20260901183716 95 203 2.0 3.0 0.00 0.00 0.00 53 1016.5
20260901182716 94 225 4.0 7.0 0.00 0.00 0.00 54 1016.5
20260901181716 95 225 5.0 8.0 0.00 0.00 0.00 53 1016.7
20260901180716 94 225 4.0 9.0 0.00 0.00 0.00 55 1016.7
20260901175716 94 180 3.0 6.0 0.00 0.00 0.00 55 1016.7
20260901174716 93 203 4.0 7.0 0.00 0.00 0.00 57 1016.8
20260901173716 93 225 5.0 8.0 0.00 0.00 0.00 56 1017.0
20260901172716 92 225 4.0 7.0 0.00 0.00 0.00 56 1017.0
20260901171716 92 225 3.0 4.0 0.00 0.00 0.00 57 1017.0
20260901170716 92 158 5.0 6.0 0.00 0.00 0.00 58 1017.2
20260901165736 91 225 7.0 8.0 0.00 0.00 0.00 58 1017.3
20260901164716 91 203 4.0 9.0 0.00 0.00 0.00 57 1017.3
20260901163716 90 225 5.0 8.0 0.00 0.00 0.00 60 1017.4
20260901162716 89 225 4.0 6.0 0.00 0.00 0.00 60 1017.4
20260901161716 89 203 3.0 6.0 0.00 0.00 0.00 61 1017.5
20260901160716 89 225 4.0 9.0 0.00 0.00 0.00 62 1017.5
20260901155716 88 225 5.0 6.0 0.00 0.00 0.00 62 1017.5
20260901154716 88 225 4.0 6.0 0.00 0.00 0.00 62 1017.5
20260901153716 87 225 4.0 5.0 0.00 0.00 0.00 64 1017.5
20260901152716 86 225 2.0 4.0 0.00 0.00 0.00 66 1017.5
20260901151715 85 248 3.0 5.0 0.00 0.00 0.00 67 1017.5
20260901150736 85 225 5.0 6.0 0.00 0.00 0.00 67 1017.5
20260901145716 84 225 4.0 8.0 0.00 0.00 0.00 69 1017.7
20260901144716 83 203 5.0 7.0 0.00 0.00 0.00 70 1017.5
20260901143715 83 203 4.0 6.0 0.00 0.00 0.00 72 1017.5
20260901142716 82 203 4.0 7.0 0.00 0.00 0.00 74 1017.5
20260901141716 81 225 4.0 5.0 0.00 0.00 0.00 75 1017.5
20260901140716 80 203 3.0 5.0 0.00 0.00 0.00 77 1017.4
20260901135716 79 225 3.0 6.0 0.00 0.00 0.00 78 1017.4
20260901134715 79 225 4.0 7.0 0.00 0.00 0.00 79 1017.4
20260901133715 78 158 4.0 7.0 0.00 0.00 0.00 79 1017.4
20260901132735 77 225 3.0 7.0 0.00 0.00 0.00 80 1017.3
20260901131715 77 203 2.0 4.0 0.00 0.00 0.00 81 1017.4
20260901130735 76 180 2.0 8.0 0.00 0.00 0.00 82 1017.3
20260901125715 76 180 3.0 6.0 0.00 0.00 0.00 82 1017.3
20260901124715 75 180 2.0 5.0 0.00 0.00 0.00 82 1017.1
20260901123717 74 158 3.0 5.0 0.00 0.00 0.00 82 1017.0
20260901122715 74 158 2.0 4.0 0.00 0.00 0.00 82 1017.0
20260901121715 73 203 4.0 7.0 0.00 0.00 0.00 82 1016.8
20260901120715 73 180 4.0 7.0 0.00 0.00 0.00 82 1016.7
20260901115717 73 180 3.0 5.0 0.00 0.00 0.00 82 1016.6
20260901114717 73 180 3.0 5.0 0.00 0.00 0.00 82 1016.5
20260901113717 73 158 3.0 5.0 0.00 0.00 0.00 82 1016.4
20260901112717 73 180 2.0 3.0 0.00 0.00 0.00 82 1016.4
20260901111717 73 180 2.0 4.0 0.00 0.00 0.00 82 1016.3
20260901110717 73 180 3.0 5.0 0.00 0.00 0.00 82 1016.2
20260901105715 73 180 2.0 3.0 0.00 0.00 0.00 82 1016.1
20260901104718 73 158 2.0 4.0 0.00 0.00 0.00 82 1016.1
20260901103717 73 158 2.0 2.0 0.00 0.00 0.00 82 1016.0
20260901102717 74 158 2.0 3.0 0.00 0.00 0.00 82 1015.9
20260901101717 74 158 2.0 4.0 0.00 0.00 0.00 82 1015.9
20260901100717 74 135 2.0 3.0 0.00 0.00 0.00 82 1016.0
20260901095717 74 158 2.0 4.0 0.00 0.00 0.00 82 1016.0
20260901094717 74 158 2.0 4.0 0.00 0.00 0.00 82 1016.0
20260901093717 74 158 2.0 2.0 0.00 0.00 0.00 82 1015.9
20260901092717 74 158 3.0 4.0 0.00 0.00 0.00 82 1015.8
20260901091757 74 135 2.0 4.0 0.00 0.00 0.00 83 1015.9
20260901090757 74 135 2.0 2.0 0.00 0.00 0.00 83 1015.9
20260901085717 75 158 1.0 2.0 0.00 0.00 0.00 82 1016.0
20260901084717 75 0.0 0.0 0.00 0.00 0.00 82 1016.0
20260901083717 75 0.0 0.0 0.00 0.00 0.00 82 1016.0
20260901082717 75 0.0 0.0 0.00 0.00 0.00 82 1015.9
20260901081717 75 203 1.0 2.0 0.00 0.00 0.00 82 1015.9
20260901080717 75 158 1.0 2.0 0.00 0.00 0.00 82 1015.9
20260901075716 76 158 1.0 2.0 0.00 0.00 0.00 82 1015.9
20260901074737 76 135 1.0 2.0 0.00 0.00 0.00 82 1015.9
20260901073717 76 135 1.0 2.0 0.00 0.00 0.00 82 1016.1
20260901072716 76 0.0 0.0 0.00 0.00 0.00 81 1016.0
20260901071716 77 180 1.0 2.0 0.00 0.00 0.00 81 1016.0
20260901070717 77 180 1.0 3.0 0.00 0.00 0.00 81 1016.0
20260901065737 77 203 1.0 2.0 0.00 0.00 0.00 81 1015.9
20260901064716 77 225 2.0 3.0 0.00 0.00 0.00 81 1015.9
20260901063716 77 203 2.0 4.0 0.00 0.00 0.00 81 1015.9
20260901062736 77 248 2.0 3.0 0.00 0.00 0.00 81 1015.8
20260901061736 77 0.0 0.0 0.00 0.00 0.00 81 1015.8
20260901060716 77 0.0 0.0 0.00 0.00 0.00 81 1015.8
20260901055716 77 0.0 0.0 0.00 0.00 0.00 81 1015.7
20260901054716 77 0.0 0.0 0.00 0.00 0.00 81 1015.7
20260901053756 77 0.0 0.0 0.00 0.00 0.00 81 1015.7
20260901052716 77 0.0 0.0 0.00 0.00 0.00 81 1015.5
20260901051716 78 158 1.0 2.0 0.00 0.00 0.00 81 1015.5
20260901050736 78 0.0 0.0 0.00 0.00 0.00 81 1015.5
20260901045716 78 0.0 1.0 0.00 0.00 0.00 81 1015.5
20260901044716 79 158 1.0 2.0 0.00 0.00 0.00 80 1015.4
20260901043716 79 158 1.0 2.0 0.00 0.00 0.00 80 1015.4
20260901042716 80 180 1.0 2.0 0.00 0.00 0.00 79 1015.3
20260901041716 80 248 1.0 2.0 0.00 0.00 0.00 78 1015.3
20260901040736 80 180 2.0 4.0 0.00 0.00 0.00 78 1015.3
20260901035716 80 158 3.0 4.0 0.00 0.00 0.00 78 1015.3
20260901034716 81 158 4.0 5.0 0.00 0.00 0.00 77 1015.2
20260901033716 81 158 4.0 6.0 0.00 0.00 0.00 77 1015.2
20260901032736 81 158 3.0 4.0 0.00 0.00 0.00 77 1015.2
20260901031716 81 158 4.0 6.0 0.00 0.00 0.00 77 1015.2
20260901030756 81 158 3.0 4.0 0.00 0.00 0.00 77 1015.2
20260901025736 81 158 4.0 6.0 0.00 0.00 0.00 77 1015.1
20260901024716 81 180 2.0 4.0 0.00 0.00 0.00 78 1015.1
20260901023716 82 158 3.0 6.0 0.00 0.00 0.00 78 1015.1
20260901022716 82 158 3.0 5.0 0.00 0.00 0.00 77 1015.1
20260901021716 82 158 3.0 4.0 0.00 0.00 0.00 77 1014.9
20260901020716 83 158 3.0 4.0 0.00 0.00 0.00 77 1015.0
20260901015716 83 158 3.0 5.0 0.00 0.00 0.00 77 1014.9
20260901014716 83 158 3.0 4.0 0.00 0.00 0.00 77 1014.9
20260901013715 84 158 3.0 4.0 0.00 0.00 0.00 77 1014.8
20260901012736 84 203 3.0 5.0 0.00 0.00 0.00 77 1014.7
20260901011716 85 180 2.0 3.0 0.00 0.00 0.00 76 1014.6
20260901010716 85 158 2.0 4.0 0.00 0.00 0.00 77 1014.4
20260901005716 86 158 2.0 2.0 0.00 0.00 0.00 76 1014.4
20260901004715 86 135 3.0 4.0 0.00 0.00 0.00 76 1014.3
20260901003715 87 135 2.0 4.0 0.00 0.00 0.00 75 1014.3
20260901002715 88 135 2.0 3.0 0.00 0.00 0.00 76 1014.3
20260901001715 89 158 1.0 2.0 0.00 0.00 0.00 73 1014.3
20260901000716 90 158 1.0 2.0 0.00 0.00 0.00 72 1014.5
20260831235715 91 180 1.0 1.0 0.00 0.00 0.00 67 1014.5
20260831234715 91 0.0 1.0 0.00 0.00 0.00 65 1014.3
20260831233716 92 158 1.0 1.0 0.00 0.00 0.00 63 1014.3
20260831232735 93 158 1.0 2.0 0.00 0.00 0.00 62 1014.3
20260831231735 93 180 1.0 1.0 0.00 0.00 0.00 61 1014.3
20260831230715 94 158 1.0 2.0 0.00 0.00 0.00 60 1014.4
20260831225715 94 158 1.0 1.0 0.00 0.00 0.00 57 1014.3
20260831224735 94 158 1.0 1.0 0.00 0.00 0.00 59 1014.2
20260831223715 94 203 2.0 3.0 0.00 0.00 0.00 58 1014.1
20260831222715 95 158 1.0 3.0 0.00 0.00 0.00 59 1014.3
20260831221717 94 225 1.0 2.0 0.00 0.00 0.00 59 1014.2
20260831220717 94 203 3.0 4.0 0.00 0.00 0.00 59 1014.3